This is the latest recevied weather packets stored in our database for station/object SP9MUF-14. If no packets are shown the sender has not sent any weather packets the latest 10 day(s).
| Time | Temp. | Humidity | Pressure | Rain* | Wind** | Luminosity | Snow |
|---|---|---|---|---|---|---|---|
| 1788571946 | 16.67° C | 81% | 1013.3 hPa | 0.25 mm | - | 0 W/m² | - |
| 1788571644 | 16.67° C | 81% | 1013.6 hPa | 0.25 mm | - | 0 W/m² | - |
| 1788571039 | 17.78° C | 76% | 1013.3 hPa | 0 mm | - | 0 W/m² | - |
| 1788570738 | 17.78° C | 76% | 1013.2 hPa | 0 mm | - | 0 W/m² | - |
| 1788570435 | 17.78° C | 75% | 1012.8 hPa | 0 mm | - | 0 W/m² | - |
| 1788570133 | 17.78° C | 71% | 1013 hPa | 0 mm | - | 0 W/m² | - |
| 1788569831 | 18.89° C | 71% | 1012.8 hPa | 0 mm | - | 0 W/m² | - |
| 1788569529 | 18.89° C | 68% | 1012.9 hPa | 0 mm | - | 0 W/m² | - |
| 1788569227 | 18.89° C | 65% | 1012.7 hPa | 0 mm | - | 0 W/m² | - |
| 1788568925 | 18.89° C | 64% | 1012.3 hPa | 0 mm | - | 0 W/m² | - |
| 1788568623 | 20° C | 64% | 1012.1 hPa | 0 mm | - | 0 W/m² | - |
| 1788568321 | 20° C | 64% | 1012.2 hPa | 0 mm | - | 0 W/m² | - |
| 1788568019 | 20° C | 62% | 1011.7 hPa | 0 mm | - | 0 W/m² | - |
| 1788567716 | 20.56° C | 61% | 1011.8 hPa | 0 mm | - | 0 W/m² | - |
| 1788567415 | 20.56° C | 60% | 1011.5 hPa | 0 mm | - | 0 W/m² | - |
| 1788567112 | 20.56° C | 60% | 1011.3 hPa | 0 mm | - | 0 W/m² | - |
| 1788566810 | 20.56° C | 60% | 1011.4 hPa | 0 mm | - | 0 W/m² | - |
| 1788566508 | 20.56° C | 59% | 1011 hPa | 0 mm | - | 0 W/m² | - |
| 1788566206 | 20.56° C | 58% | 1010.7 hPa | 0 mm | - | 0 W/m² | - |
| 1788565904 | 20.56° C | 58% | 1010.7 hPa | 0 mm | - | 0 W/m² | - |
| 1788565602 | 20.56° C | 57% | 1010.6 hPa | 0 mm | - | 0 W/m² | - |
| 1788565299 | 21.67° C | 56% | 1010.3 hPa | 0 mm | - | 0 W/m² | - |
| 1788564997 | 21.67° C | 55% | 1010.2 hPa | 0 mm | - | 0 W/m² | - |
| 1788564695 | 21.67° C | 57% | 1010 hPa | 0 mm | - | 0 W/m² | - |
| 1788564091 | 22.78° C | 58% | 1009.9 hPa | 0 mm | - | 0 W/m² | - |
* Rain latest hour (hover to see other rain measurements)
** Current wind speed in m/s (hover to see current wind gust speed)